Location: Killam
(52.7910°N, 111.8608°W)
Time: 17:37:20
(UTC+00:00)

JY1SAT - Visible Passes

Search period start: 14 March 2026 00:00
Search period end: 24 March 2026 00:00
Orbit: 471 x 478 km, 97.4° (Epoch: 14 March)

Date Brightness Start Highest point End Pass type
(mag) Time Alt. Az. Time Alt. Az. Time Alt. Az.
14 Mar ? 03:26:24 20° NE 03:26:24 20° NE 03:28:22 10° NNE visible
14 Mar ? 05:00:33 21° NW 05:00:33 21° NW 05:01:58 10° NNW visible
15 Mar ? 02:58:30 13° NE 02:58:30 13° NE 02:59:59 10° NNE visible
15 Mar ? 04:32:38 30° NNW 04:32:38 30° NNW 04:34:36 10° NNW visible
16 Mar ? 04:04:43 34° NNE 04:04:43 34° NNE 04:06:59 10° N visible
16 Mar ? 05:38:51 12° WNW 05:38:51 12° WNW 05:39:15 10° NW visible
17 Mar ? 03:36:44 25° NE 03:36:44 25° NE 03:39:06 10° N visible
17 Mar ? 05:10:52 20° NW 05:10:52 20° NW 05:12:23 10° NNW visible
18 Mar ? 03:08:44 16° ENE 03:08:44 16° ENE 03:10:51 10° NNE visible
18 Mar ? 04:42:51 33° NW 04:42:51 33° NW 04:45:00 10° NNW visible
19 Mar ? 04:14:49 43° N 04:14:49 43° N 04:17:21 10° N visible
19 Mar ? 05:48:57 10° WNW 05:48:57 10° WNW 05:49:00 10° WNW visible
20 Mar ? 03:46:44 32° NE 03:46:44 32° NE 03:49:27 10° N visible
20 Mar ? 05:20:51 18° WNW 05:20:51 18° WNW 05:22:24 10° NW visible
21 Mar ? 03:18:37 19° ENE 03:18:38 19° ENE 03:21:14 10° NNE visible
21 Mar ? 04:52:44 32° NW 04:52:44 32° NW 04:55:02 10° NNW visible
22 Mar ? 02:50:27 11° ENE 02:51:09 11° NE 02:52:14 10° NE visible
22 Mar ? 04:24:35 52° NNW 04:24:35 52° NNW 04:27:21 10° NNW visible
23 Mar ? 03:56:23 41° NE 03:56:23 41° NE 03:59:25 10° N visible
23 Mar ? 05:30:30 16° WNW 05:30:30 16° WNW 05:32:00 10° NW visible
